Preview of NWS' New Version of Forecast
This preview is not operational and should not be used for support decisions.

Regional Weather Roundup (RWR)

Issued by National Weather Service (NWS)

                            
000
ASUS45 KCYS 221610
RWRWY 

WYOMING REGIONAL WEATHER ROUNDUP
NATIONAL WEATHER SERVICE CHEYENNE WY
1000 AM MDT MON APR 22 2019

NOTE:  "FAIR" INDICATES FEW OR NO CLOUDS BELOW 12,000 FEET
WITH NO SIGNIFICANT WEATHER AND/OR OBSTRUCTIONS TO VISIBILITY.

WYZ001-221700-
YELLOWSTONE NATIONAL PARK
  
CITY           SKY/WX    TMP DP  RH WIND       PRES   REMARKS
LK YELLOWSTONE   N/A     38  26  62 VRB3      30.26S                  
W YELLOWSTONE  NOT AVBL                                               

$$
WYZ002>013-054>058-071-098>099-221700-
NORTHERN WYOMING
  
CITY           SKY/WX    TMP DP  RH WIND       PRES   REMARKS
JACKSON        CLOUDY    41  34  76 N6        30.23S                  
CODY           CLOUDY    39  35  86 CALM      30.29S                  
GREYBULL       LGT RAIN  43  40  89 CALM      30.28S                  
WORLAND        CLOUDY    43  39  86 CALM      30.28S                  
SHERIDAN       FAIR      50  38  63 E13       30.27F                  
BUFFALO        PTSUNNY   45  38  76 SE12      30.28S                  
GILLETTE       CLOUDY    46  40  79 E5        30.28F                  
HULETT         FAIR      46  41  81 CALM      30.29                   
NEWCASTLE      CLOUDY    45  36  70 CALM      30.30                   

$$
WYZ014>020-022>026-101>103-221700-
CENTRAL WYOMING
  
CITY           SKY/WX    TMP DP  RH WIND       PRES   REMARKS
BIG PINEY      LGT RAIN  38  35  89 CALM      30.25R                  
PINEDALE       DRIZZLE   37  36  93 NW3       30.25                   
DUBOIS         LGT RAIN  34  32  93 E6        30.26  WCI  29          
LANDER         LGT RAIN  39  36  89 CALM      30.27S                  
RIVERTON       LGT RAIN  40  36  86 E6        30.28S                  
CASPER         CLOUDY    40  36  86 E18       30.27S WCI  31          
DOUGLAS        CLOUDY    40  37  89 SE8       30.31S WCI  34          

$$
WYZ021-027>030-104>119-221700-
SOUTHERN WYOMING
  
CITY           SKY/WX    TMP DP  RH WIND       PRES   REMARKS
EVANSTON       LGT SNOW  35  33  92 N8        30.22  FOG     WCI  29  
KEMMERER       FAIR      34  32  93 E15G22    30.23  WCI  24          
ROCK SPRINGS   CLOUDY    36  33  89 NE17      30.23R WCI  26          
DIXON          CLOUDY    48  37  65 W6        30.18S                  
RAWLINS        CLOUDY    38  34  85 NE18      30.22R WCI  28          
SARATOGA       CLOUDY    45  37  76 CALM      30.20S                  
LARAMIE        CLOUDY    39  35  86 E7        30.22S WCI  34          
CHEYENNE       CLOUDY    35  34  96 NE10      30.26S WCI  27          
TORRINGTON     CLOUDY    42  37  82 W3        30.29S                  
PINE BLUFFS    CLOUDY    36  36 100 NE15      30.27F WCI  26          

$$